Regional Weather Roundup
Issued by NWS

Home | Current Version | Previous Version | Graphics & Text | Print | Product List | Glossary On
Versions: 1 2 3 4 5 6 7 8 9 10 11 12 13 14 15 16 17 18 19 20 21 22 23 24 25 26 27 28 29 30 31 32 33 34 35 36 37 38 39 40 41 42 43 44 45 46 47 48 49 50
000
ASUS43 KLMK 130410
RWRKY
KENTUCKY REGIONAL WEATHER ROUNDUP
NATIONAL WEATHER SERVICE LOUISVILLE KY
1100 PM EST TUE DEC 12 2017

NOTE "FAIR" INDICATES FEW OR NO CLOUDS BELOW 12,000 FEET
WITH NO SIGNIFICANT WEATHER AND/OR OBSTRUCTIONS TO VISIBILITY.

KYZ001>023-026-027-061>063-070>075-130500-
WESTERN AND SOUTH CENTRAL KENTUCKY

CITY           SKY/WX    TMP DP  RH WIND       PRES   REMARKS
PADUCAH        CLOUDY    22  14  71 CALM      30.12F
HENDERSON      CLEAR     23  15  71 CALM      30.11F
OWENSBORO      CLEAR     23  13  65 W3        30.11S
HOPKINSVILLE   CLEAR     28  10  46 CALM      30.11S
BOWLING GREEN  CLEAR     26  10  50 CALM      30.11S
GLASGOW        CLEAR     22  13  69 CALM      30.09S
$$

KYZ024-025-028>034-038-045-046-053-130500-
NORTH CENTRAL KENTUCKY

CITY           SKY/WX    TMP DP  RH WIND       PRES   REMARKS
LOUISVILLE/SDF CLEAR     24   8  50 W8        30.07S WCI  15
LOUISVILLE/LOU CLEAR     24   9  52 W6        30.07S WCI  17
FORT KNOX      CLEAR     20   8  60 W3        30.05S
$$

KYZ035>037-039>044-047>052-055>060-089>105-130500-
NORTHEAST KENTUCKY

CITY           SKY/WX    TMP DP  RH WIND       PRES   REMARKS
LEXINGTON      CLEAR     20   7  57 W7        30.03S WCI  11
COVINGTON      CLEAR     19  10  68 W5        30.00S WCI  12
FRANKFORT      CLEAR     22   6  50 W5        30.03S WCI  16
$$

KYZ054-064>069-076>088-106>120-130500-
SOUTHEAST KENTUCKY

CITY           SKY/WX    TMP DP  RH WIND       PRES   REMARKS
JACKSON        CLEAR     22   7  52 W8        29.98S WCI  12
LONDON         CLEAR     23   6  48 W5        30.03S WCI  17
SOMERSET       CLEAR     25   9  50 W7        30.08S WCI  17
MIDDLESBORO    CLEAR     26   7  43 NW7       30.04R WCI  18
MONTICELLO     CLEAR     25  12  58 NW9       30.09R WCI  15
$$





USA.gov is the U.S. government's official web portal to all federal, state and local government web resources and services.